Regional Weather Roundup
Issued by NWS Midland/Odessa, TX

Skip options and go directly to product.
Home | Oldest Version | Previous Version | Current Version | All | Text Only | Save Text | Print | Product List | Glossary Off

Skip product version selection by date and time.   

922
ASUS44 KMAF 251710
RWRMAF
MIDLAND AREA WEATHER ROUNDUP
NATIONAL WEATHER SERVICE MIDLAND TX
1200 PM CDT SAT OCT 25 2014

...IN SOUTHWEST TEXAS AND SOUTHEAST NEW MEXICO...

CITY           SKY/WX    TMP DP  RH WIND       PRES   REMARKS
ALPINE         SUNNY     77  47  34 W8        30.35S
ANDREWS        FAIR      78  58  49 S8        30.21F
ARTESIA        NOT AVBL
BIG SPRING     SUNNY     79  60  52 S7        30.23S
CARLSBAD       SUNNY     70  56  61 SE5       30.21S
DRYDEN           N/A     75  62  64 CALM      30.19F
FORT STOCKTON  SUNNY     81  54  39 SW10      30.21S
GUAD PASS      SUNNY     69  49  48 SW14      30.35S
HOBBS          SUNNY     73  57  56 S7        30.24S
MARFA          SUNNY     72  54  53 S5        30.35S
MIDLAND AIRPK  SUNNY     80  56  43 S8        30.21S
MIDLAND INTL   SUNNY     80  56  43 S10       30.20F
ODESSA         SUNNY     79  56  45 S10       30.21F
PECOS          SUNNY     73  57  58 CALM      30.19F
PRESIDIO       FAIR      76  55  48 S3        30.23F
SEMINOLE       SUNNY     77  58  52 S9        30.23F
SNYDER         SUNNY     73  61  67 SW10      30.21S
WINK           SUNNY     76  55  48 CALM      30.19S
$$
...OTHER STATIONS IN TEXAS...

CITY           SKY/WX    TMP DP  RH WIND       PRES   REMARKS
ABILENE        SUNNY     83  57  41 SW12      30.18S
AMARILLO       SUNNY     78  51  38 SW15G23   30.19F
AUSTIN         SUNNY     82  59  45 W9        30.18S
BROWNSVILLE    SUNNY     83  66  56 NE7       30.16F
CORPUS CHRISTI SUNNY     80  63  55 CALM      30.17F
DALLAS FTW     SUNNY     79  61  53 SW10      30.14S
DEL RIO        SUNNY     77  64  64 SE8       30.17F
EL PASO        SUNNY     70  49  47 CALM      30.26S
HOUSTON INT    SUNNY     78  55  44 VRB3      30.18F
LUBBOCK        SUNNY     77  56  48 SW9       30.20F
SAN ANGELO     SUNNY     81  57  43 S10       30.19F
SAN ANTONIO    SUNNY     80  56  43 CALM      30.19F
WACO           SUNNY     80  60  50 SW9       30.17F
WICHITA FALLS  NOT AVBL
$$
...OTHER LOCATIONS IN NEW MEXICO...

CITY           SKY/WX    TMP DP  RH WIND       PRES   REMARKS
ALAMAGORDO     NOT AVBL
ALBUQUERQUE    SUNNY     62  34  35 CALM      30.34S
CANNON AFB     SUNNY     75  47  36 SW7       30.23F
CLOVIS         SUNNY     73  48  40 S8        30.25F
HOLLOMAN AFB   SUNNY     70  46  42 S6        30.26S
ROSWELL        SUNNY     68  53  58 S6        30.22S
RUIDOSO        SUNNY     68  36  30 W3        30.40F
SANTA FE       SUNNY     66  22  18 N13       30.35F
TRUTH OR CONSE SUNNY     69  46  43 E3        30.29F
TUCUMCARI      SUNNY     74  34  23 SW7       30.18F
$$

USA.gov is the U.S. government's official web portal to all federal, state and local government web resources and services.